Location: Waco, TX
(31.5480°N, 97.1670°W)
Time: 09:32:53
(UTC-05:00)

ISS - Pass Details

Date: 18 August 2018
Orbit: 402 x 409 km, 51.6° (Epoch: 18 August)

Event Time Altitude Azimuth Distance (km) Brightness Sun altitude
Rises 17:07:04 0° 328° (NNW) 2,314 0.3 37.5°
Reaches altitude 10° 17:09:29 10° 345° (NNW) 1,454 -0.8 37.0°
Maximum altitude 17:12:03 21° 37° (NE) 965 -2.1 36.5°
Drops below altitude 10° 17:14:36 10° 89° (E) 1,452 -1.4 35.9°
Sets 17:17:01 0° 106° (ESE) 2,309 -0.5 35.4°
